This demonstration page uses our WeatherBlox Daily Observations layout. Learn more.

Left ArrowRight Arrow

40.92945, -100.16068

Hourly Observations for February 9, 2022

Temp ( °F °C ) Dew Point ( °F °C ) Humidity (%) Winds ( mph kmh ) Pressure ( in mb ) Visibility ( mi km ) Precip ( " mm )
12:15 am 00:15 Clear 30 -1.3 13 -10.7 49 49 NW 8 13 30.14 1021 10 16 0.00 0.00
12:35 am 00:35 Partly Cloudy 32 -0.2 13 -10.5 46 46 NW 7 11 30.13 1020 10 16 0.00 0.00
12:55 am 00:55 Partly Cloudy 32 -0.1 13 -10.5 46 46 NW 9 15 30.14 1021 10 16 0.00 0.00
1:15 am 01:15 Clear 32 0.2 14 -10.1 46 46 WNW 9 15 30.14 1020 10 16 0.00 0.00
1:35 am 01:35 Partly Cloudy 32 0 14 -10 47 47 WNW 8 13 30.13 1020 10 16 0.00 0.00
1:55 am 01:55 Partly Cloudy 32 0 14 -9.8 48 48 WNW 8 13 30.13 1020 10 16 0.00 0.00
2:15 am 02:15 Partly Cloudy 32 0 15 -9.7 48 48 WNW 9 15 30.13 1020 10 16 0.00 0.00
2:35 am 02:35 Partly Cloudy 32 -0.1 15 -9.6 49 49 WNW 8 13 30.13 1020 10 16 0.00 0.00
2:55 am 02:55 Partly Cloudy 31 -0.6 15 -9.5 51 51 WNW 8 13 30.13 1020 10 16 0.00 0.00
3:15 am 03:15 Partly Cloudy 32 -0.2 15 -9.2 51 51 WNW 8 13 30.13 1020 10 16 0.00 0.00
3:35 am 03:35 Mostly Cloudy 32 -0.1 16 -9.1 51 51 NW 7 11 30.13 1020 10 16 0.00 0.00
3:55 am 03:55 Partly Cloudy 31 -0.4 15 -9.2 52 52 WNW 7 11 30.12 1020 10 16 0.00 0.00
4:15 am 04:15 Clear 31 -0.5 16 -9 53 53 W 9 15 30.12 1020 10 16 0.00 0.00
4:35 am 04:35 Clear 30 -1.2 15 -9.3 55 55 W 6 9 30.13 1020 10 16 0.00 0.00
4:55 am 04:55 Clear 26 -3.4 14 -10 61 61 W 5 7 30.14 1021 10 16 0.00 0.00
5:15 am 05:15 Clear 25 -4 14 -9.9 64 64 W 9 15 30.16 1021 10 16 0.00 0.00
5:35 am 05:35 Clear 28 -2.1 16 -9.1 59 59 WNW 9 15 30.14 1021 10 16 0.00 0.00
5:55 am 05:55 Clear 24 -4.3 14 -10.1 64 64 NW 8 13 30.17 1022 10 16 0.00 0.00
6:15 am 06:15 Clear 27 -3 15 -9.4 62 62 NW 9 15 30.16 1021 10 16 0.00 0.00
6:35 am 06:35 Clear 27 -2.8 15 -9.2 62 62 WNW 9 15 30.16 1021 10 16 0.00 0.00
6:55 am 06:55 Clear 24 -4.2 15 -9.6 66 66 WNW 8 13 30.18 1022 10 16 0.00 0.00
7:15 am 07:15 Clear 25 -3.7 15 -9.2 66 66 W 12 19 30.17 1022 10 16 0.00 0.00
7:35 am 07:35 Clear 26 -3.4 15 -9.3 64 64 WNW 10 17 30.17 1022 10 16 0.00 0.00
7:55 am 07:55 Sunny 26 -3.5 15 -9.2 65 65 WNW 9 15 30.17 1022 10 16 0.00 0.00
8:15 am 08:15 Sunny 28 -2.3 16 -8.8 61 61 WNW 9 15 30.17 1022 10 16 0.00 0.00
8:35 am 08:35 Sunny 30 -0.9 17 -8.2 58 58 WNW 12 19 30.16 1021 10 16 0.00 0.00
8:55 am 08:55 Sunny 32 0.1 17 -8.2 54 54 NW 12 19 30.16 1021 10 16 0.00 0.00
9:15 am 09:15 Sunny 35 1.5 17 -8.2 49 49 WNW 12 19 30.14 1021 10 16 0.00 0.00
9:35 am 09:35 Sunny 37 2.8 17 -8.2 45 45 NW 8 13 30.13 1020 10 16 0.00 0.00
9:55 am 09:55 Sunny 40 4.7 18 -7.9 40 40 WNW 7 11 30.11 1020 10 16 0.00 0.00
10:15 am 10:15 Sunny 43 6.2 19 -7.5 37 37 NW 7 11 30.10 1019 10 16 0.00 0.00
10:35 am 10:35 Sunny 47 8.1 19 -7.2 33 33 NW 15 24 30.08 1019 10 16 0.00 0.00
10:55 am 10:55 Sunny 48 8.8 19 -7.4 31 31 NW 14 22 30.07 1018 10 16 0.00 0.00
11:15 am 11:15 Sunny 49 9.2 19 -7.3 31 31 NW 18 30 30.07 1018 10 16 0.00 0.00
11:35 am 11:35 Sunny 50 9.8 19 -7.4 29 29 NW 16 26 30.05 1018 10 16 0.00 0.00
11:55 am 11:55 Sunny 52 10.9 19 -7.4 27 27 NW 23 37 30.03 1017 10 16 0.00 0.00
12:15 pm 12:15 Sunny 52 11.2 19 -7.4 27 27 NW 18 30 30.02 1017 10 16 0.00 0.00
12:35 pm 12:35 Sunny 53 11.5 19 -7.5 26 26 NW 22 35 30.01 1016 10 16 0.00 0.00
12:55 pm 12:55 Sunny 53 11.8 19 -7.5 25 25 NW 24 39 29.99 1016 10 16 0.00 0.00
1:15 pm 13:15 Sunny 54 12.4 18 -7.6 24 24 NW 21 33 29.98 1015 10 16 0.00 0.00
1:35 pm 13:35 Sunny 55 12.5 18 -7.9 24 24 NW 24 39 29.98 1015 10 16 0.00 0.00
1:55 pm 13:55 Sunny 55 12.5 18 -7.9 24 24 NW 18 30 29.97 1015 10 16 0.00 0.00
2:15 pm 14:15 Sunny 54 12.4 18 -8 23 23 NW 21 33 29.97 1015 10 16 0.00 0.00
2:35 pm 14:35 Sunny 56 13.5 17 -8.2 22 22 NNW 24 39 29.95 1014 10 16 0.00 0.00
2:55 pm 14:55 Partly Cloudy 55 12.8 17 -8.5 22 22 NW 17 28 29.95 1014 10 16 0.00 0.00
3:15 pm 15:15 Partly Cloudy 55 12.7 17 -8.4 22 22 NNW 18 30 29.95 1014 10 16 0.00 0.00
3:35 pm 15:35 Sunny 55 12.7 16 -8.8 22 22 NNW 17 28 29.95 1014 10 16 0.00 0.00
3:55 pm 15:55 Sunny 55 12.5 17 -8.5 22 22 NNW 20 31 29.95 1014 10 16 0.00 0.00
4:15 pm 16:15 Mostly Cloudy 54 12 17 -8.2 24 24 N 18 30 29.95 1014 10 16 0.00 0.00
4:35 pm 16:35 Mostly Cloudy 53 11.7 18 -8 25 25 NNW 16 26 29.97 1015 10 16 0.00 0.00
4:55 pm 16:55 Cloudy 53 11.6 19 -7.4 26 26 NNW 18 30 29.96 1014 10 16 0.00 0.00
5:15 pm 17:15 Cloudy 52 10.9 20 -6.6 29 29 N 20 31 29.96 1015 10 16 0.00 0.00
5:35 pm 17:35 Cloudy 50 10 22 -5.8 33 33 N 14 22 29.97 1015 10 16 0.00 0.00
5:55 pm 17:55 Cloudy 49 9.5 20 -6.5 32 32 N 10 17 30.00 1016 10 16 0.00 0.00
6:15 pm 18:15 Cloudy 48 9 21 -6.3 34 34 N 9 15 30.00 1016 10 16 0.00 0.00
6:35 pm 18:35 Cloudy 48 8.9 22 -5.6 36 36 NW 14 22 30.02 1017 10 16 0.00 0.00
6:55 pm 18:55 Cloudy 48 9 23 -5 37 37 NNW 13 20 30.03 1017 10 16 0.00 0.00
7:15 pm 19:15 Cloudy 47 8.5 23 -5 38 38 NNW 13 20 30.05 1017 10 16 0.00 0.00
7:35 pm 19:35 Cloudy 47 8.5 24 -4.7 39 39 NNW 12 19 30.06 1018 10 16 0.00 0.00
7:55 pm 19:55 Cloudy 46 7.7 24 -4.5 42 42 N 15 24 30.07 1018 10 16 0.00 0.00
8:15 pm 20:15 Cloudy 45 7 24 -4.5 44 44 N 17 28 30.09 1019 10 16 0.00 0.00
8:35 pm 20:35 Cloudy 44 6.5 26 -3.3 50 50 N 13 20 30.10 1019 10 16 0.00 0.00
8:55 pm 20:55 Cloudy 43 5.9 26 -3.2 52 52 N 14 22 30.12 1020 10 16 0.00 0.00
9:15 pm 21:15 Cloudy 42 5.3 27 -2.7 57 57 N 14 22 30.14 1020 10 16 0.00 0.00
9:35 pm 21:35 Cloudy 40 4.7 28 -2.1 62 62 N 9 15 30.14 1021 10 16 0.00 0.00
9:55 pm 21:55 Cloudy 39 4.1 29 -1.4 68 68 N 14 22 30.16 1021 10 16 0.00 0.00
10:15 pm 22:15 Cloudy 38 3.5 30 -1.3 71 71 NNW 10 17 30.17 1022 10 16 0.00 0.00
10:35 pm 22:35 Cloudy 37 2.8 29 -1.5 74 74 NNW 7 11 30.18 1022 10 16 0.00 0.00
10:55 pm 22:55 Cloudy 37 2.5 30 -1.3 76 76 NNW 8 13 30.18 1022 10 16 0.00 0.00
11:15 pm 23:15 Cloudy 34 1 28 -2.3 79 79 WNW 6 9 30.20 1023 10 16 0.00 0.00
11:35 pm 23:35 Partly Cloudy 32 0.1 28 -2.5 83 83 NW 6 9 30.21 1023 10 16 0.00 0.00
11:55 pm 23:55 Clear 29 -1.7 25 -4 85 85 NW 7 11 30.22 1024 10 16 0.00 0.00

Powered by AerisWeather